Probability
49 45 39 32 24 19 18 19 18 17 20 26 30 34 37 41 44 45 44 43 41 41 44 50 58 66 70 68 65 63 60 53 42 31 24 17 13 13 14 13 11 9 8
38 35 29 23 16 12 11 12 10 9 10 13 17 21 23 24 27 30 29 28 26 27 31 37 44 51 55 56 56 57 56 50 39 32 26 18 12 9 9 11 11 10 9
23 20 15 11 6 4 3 3 2 2 2 3 5 8 8 9 11 13 12 11 10 11 14 20 25 31 36 40 41 44 48 44 37 33 28 21 13 8 5 6 8 8 7
13 10 7 4 2 1 0 0 0 0 1 3 4 4 3 3 5 5 4 4 4 4 5 9 14 19 25 29 29 32 37 37 33 31 30 25 18 12 6 3 3 3 3
7 6 4 2 1 0 1 2 2 1 2 5 6 4 1 1 1 1 1 1 1 1 1 3 7 11 16 20 22 23 25 26 25 28 30 28 23 18 11 4 1 0 1
3 3 2 2 1 0 1 4 4 2 2 4 5 3 1 0 0 0 0 0 0 0 0 1 2 5 7 10 13 15 16 16 17 22 27 28 26 22 14 6 2 1 0
1 1 1 2 1 0 1 5 6 4 3 3 3 2 1 0 0 0 0 0 0 0 0 0 0 1 1 3 6 9 10 11 12 15 20 24 25 22 15 7 3 1 0
0 0 0 1 1 0 1 4 6 5 3 3 2 1 1 0 0 0 0 0 0 0 0 0 0 0 0 0 2 5 8 11 12 12 12 16 19 19 15 10 6 3 2
0 0 0 0 0 0 0 2 3 4 3 2 1 0 0 0 0 0 0 0 0 0 0 0 0 0 0 0 1 3 6 10 13 11 8 8 12 14 11 9 9 6 3
0 0 0 0 0 0 0 0 1 1 1 1 1 0 0 0 0 0 0 0 0 0 0 0 0 0 0 1 2 3 5 8 10 9 5 4 7 8 7 7 8 7 4
0 0 0 0 0 0 0 0 0 0 0 0 0 0 0 0 0 0 0 0 0 0 0 0 0 0 0 1 2 2 3 5 6 4 2 2 3 3 4 5 6 5 4
0 0 0 0 0 0 0 0 0 0 0 0 0 0 0 0 0 0 0 0 0 0 0 0 0 0 0 0 1 1 1 2 2 1 0 0 0 0 1 2 2 3 3
0 0 0 0 0 0 0 0 0 0 0 0 0 0 0 0 0 0 0 0 0 0 0 0 0 0 0 0 0 0 0 0 0 0 0 0 0 0 0 0 0 1 1
0 0 0 0 0 0 0 0 0 0 0 0 0 0 0 0 0 0 0 0 0 0 0 0 0 0 0 0 0 0 0 0 0 0 0 0 0 0 0 0 0 0 0
0 0 0 0 0 0 0 0 0 0 0 0 0 0 0 0 0 0 0 0 0 0 0 0 0 0 0 0 0 0 0 0 0 0 0 0 0 0 0 0 0 0 0
0 0 0 0 0 0 0 0 0 0 0 0 0 0 0 0 0 0 0 0 0 0 0 0 0 0 0 0 0 0 0 0 0 0 0 0 0 0 0 0 0 0 0
0 0 0 0 0 0 0 0 0 0 0 0 0 0 0 0 0 0 0 0 0 0 0 0 0 0 0 0 0 0 0 0 0 0 0 0 0 0 0 0 0 0 0
0 0 0 0 0 0 0 0 0 0 0 0 0 0 0 0 0 0 0 0 0 0 0 0 0 0 0 0 0 0 0 0 0 0 0 0 0 0 0 0 0 0 0
0 0 0 0 0 0 0 0 0 0 0 0 0 0 0 0 0 0 0 0 0 0 0 0 0 0 0 0 0 0 0 0 0 0 0 0 0 0 0 0 0 0 0
0 0 0 0 0 0 0 0 0 0 0 0 0 0 0 0 0 0 0 0 0 0 0 0 0 0 0 0 0 0 0 0 0 0 0 0 0 0 0 0 0 0 0
0 0 0 0 0 0 0 0 0 0 0 0 0 0 0 0 0 0 0 0 0 0 0 0 0 0 0 0 0 0 0 0 0 0 0 0 0 0 0 0 0 0 0
0 0 0 0 0 0 0 0 0 0 0 0 0 0 0 0 0 0 0 0 0 0 0 0 0 0 0 0 0 0 0 0 0 0 0 0 0 0 0 0 0 0 0
0 0 0 0 0 0 0 0 0 0 0 0 0 0 0 0 0 0 0 0 0 0 0 0 0 0 0 0 0 0 0 0 0 0 0 0 0 0 0 0 0 0 0
0 0 0 0 0 0 0 0 0 0 0 0 0 0 0 0 0 0 0 0 0 0 0 0 0 0 0 0 0 0 0 0 0 0 0 0 0 0 0 0 0 0 0
0 0 0 0 0 0 0 0 0 0 0 0 0 0 0 0 0 0 0 0 0 0 0 0 0 0 0 0 0 0 0 0 0 0 0 0 0 0 0 0 0 0 0
0 0 0 0 0 0 0 0 0 0 0 0 0 0 0 0 0 0 0 0 0 0 0 0 0 0 0 0 0 0 0 0 0 0 0 0 0 0 0 0 0 0 0
Wind_Speed
2 2 4 5 5 5 5 4 4 3 2 1 1 2 3 3 3 3 4 5 5 5 5 6 7 7 7 8 9 7 8 7 4 4 5 6 8 9 8 7 8 9 9
2 1 2 2 3 4 5 4 4 4 3 2 2 2 2 2 2 3 3 4 4 4 4 4 5 5 6 7 7 8 6 5 6 5 4 4 4 6 8 7 8 9 7
6 4 4 4 3 4 6 5 5 4 3 2 1 0 1 2 2 2 3 4 5 5 4 5 5 5 5 6 7 7 8 7 6 7 6 5 6 3 3 6 6 6 6
5 5 6 5 6 6 4 4 5 4 3 2 2 2 1 2 3 2 3 5 5 6 5 5 5 5 5 6 7 6 6 7 6 6 8 7 4 4 3 2 3 5 6
7 7 7 7 6 5 4 4 4 4 3 3 3 2 2 2 2 2 4 4 5 5 5 5 5 5 5 6 7 6 7 7 7 6 5 7 7 6 5 4 3 2 3
6 6 6 5 4 4 4 4 4 4 4 4 3 4 4 3 3 4 4 4 4 4 5 5 5 5 5 6 7 7 8 7 9 7 6 6 5 6 7 7 4 3 2
4 5 6 5 4 4 5 4 5 5 5 5 5 5 5 4 4 4 4 4 4 4 5 6 5 6 6 7 6 6 7 8 9 9 7 7 7 4 5 5 4 4 2
6 6 6 6 6 5 5 5 5 6 5 5 5 5 5 3 3 4 4 4 4 5 6 6 6 7 7 7 6 6 7 6 7 9 8 6 6 6 6 5 5 4 3
9 8 8 7 6 6 6 5 6 6 6 6 6 5 5 5 4 4 3 3 4 5 6 7 7 8 8 7 7 6 7 6 6 6 7 7 6 6 5 5 5 5 4
10 10 9 9 8 7 6 5 4 6 6 6 6 5 5 5 4 3 4 4 5 5 7 7 8 8 8 7 7 6 6 6 6 5 5 5 4 4 5 5 4 4 4
9 9 9 9 8 9 9 8 7 7 7 6 6 6 6 5 4 4 4 4 4 5 6 7 7 8 8 7 6 6 6 5 5 4 4 4 3 3 3 4 4 3 4
7 7 8 9 10 11 11 10 9 8 8 7 6 6 6 5 5 5 5 4 4 5 5 6 6 7 7 6 6 5 4 3 3 3 2 2 2 3 3 4 5 5 5
8 8 9 10 10 10 10 10 10 9 9 8 7 7 6 6 6 6 5 4 4 4 4 5 5 6 6 5 5 4 2 1 0 0 1 2 4 4 4 5 6 6 7
8 9 8 8 8 8 8 10 10 9 10 9 8 8 8 7 7 6 5 4 3 3 3 4 4 4 4 4 4 4 3 3 3 3 3 3 4 5 6 6 8 9 9
9 9 9 8 8 9 9 9 10 10 10 10 9 9 8 6 6 6 5 4 3 3 2 3 3 3 3 3 4 3 5 5 6 6 6 6 8 9 7 8 8 9 9
11 11 11 10 10 10 10 10 10 10 10 10 10 8 7 6 6 6 6 5 4 2 2 1 1 2 3 4 6 4 5 5 6 7 8 8 10 13 16 16 13 11 10
12 12 12 11 10 10 9 9 9 9 9 10 9 8 7 7 6 6 6 6 5 4 3 2 1 1 2 4 6 7 6 6 6 6 7 7 9 10 11 15 16 14 13
12 12 11 11 11 10 10 9 9 8 8 9 9 8 7 8 7 6 7 7 5 5 4 4 3 2 2 4 6 7 6 6 7 7 7 8 8 8 10 11 11 10 9
12 11 11 11 10 11 10 9 10 9 9 9 9 9 8 8 8 7 7 7 6 6 6 5 5 4 3 4 6 6 5 6 7 7 7 7 7 10 11 12 11 10 9
12 11 11 10 10 11 9 8 10 10 10 10 9 9 8 8 9 8 7 6 7 8 7 6 6 6 5 5 6 7 5 6 6 6 6 8 8 9 10 10 10 10 7
14 13 11 10 10 10 8 9 10 11 11 10 9 9 8 8 9 8 7 6 7 8 8 8 6 6 6 7 8 8 5 5 6 5 4 4 9 10 10 9 8 9 8
13 12 11 11 10 9 8 10 11 12 11 10 10 10 9 9 8 8 7 6 7 9 9 8 7 5 5 7 8 9 8 7 6 6 5 5 10 11 11 9 11 12 9
13 11 11 11 11 10 9 11 12 11 10 10 10 10 10 9 8 8 8 6 7 8 8 8 8 7 5 6 9 10 10 10 6 5 8 9 11 11 9 11 11 9 7
12 12 11 12 12 11 11 11 12 11 10 11 10 9 9 9 8 7 6 6 6 8 9 10 9 8 7 6 6 6 7 9 8 7 9 11 11 9 9 8 6 5 5
13 11 12 13 14 13 12 12 12 11 11 11 10 9 9 9 8 7 7 7 7 9 10 11 11 11 10 11 13 11 8 8 8 9 6 5 5 5 5 5 5 4 5
13 13 13 14 14 13 13 12 11 10 10 9 9 8 7 7 7 7 7 9 10 12 15 14 13 11 12 16 17 15 15 15 16 9 6 6 5 6 6 6 4 4 4
Wind_Direction
89 90 102 109 115 120 136 153 152 160 150 154 190 222 246 253 257 259 263 268 273 273 261 259 255 243 239 236 228 225 226 222 202 228 257 255 244 241 239 238 241 243 242
117 120 129 147 150 154 160 169 172 175 176 178 190 211 242 271 276 293 299 299 303 297 288 271 266 258 254 253 242 228 227 222 197 201 221 260 263 244 239 232 234 238 234
180 191 199 206 193 191 184 180 187 186 187 180 147 21 352 323 316 313 312 317 318 309 296 288 282 273 262 260 251 237 230 230 216 204 203 214 233 252 252 236 235 232 229
206 209 215 219 220 218 202 191 195 196 197 175 168 181 210 253 259 278 291 304 308 310 310 308 303 291 279 270 264 251 242 237 235 217 218 223 203 206 248 248 238 236 236
223 227 228 228 232 226 212 207 205 211 206 195 195 200 229 243 269 283 291 297 303 306 312 312 309 302 291 280 271 264 251 242 239 227 214 223 225 221 226 245 234 234 240
242 247 254 253 252 239 226 215 214 229 221 214 212 211 230 249 274 288 294 299 301 302 311 314 308 301 294 289 282 271 258 250 247 240 224 211 208 208 213 226 223 222 229
296 296 296 287 273 254 242 230 224 237 231 223 224 223 226 235 250 269 281 295 303 304 311 314 307 301 293 288 282 275 265 254 250 245 236 226 222 205 202 213 218 215 205
342 328 321 316 307 289 267 249 240 245 239 231 233 230 227 230 243 254 265 278 285 292 299 305 303 300 295 289 280 272 266 258 251 249 244 234 226 215 207 201 194 199 194
2 356 350 343 331 321 303 275 260 258 251 240 236 234 229 229 240 253 261 272 281 293 303 306 305 303 299 292 284 272 267 262 255 251 245 237 224 214 209 201 195 188 187
11 8 5 359 352 344 337 330 295 275 270 255 241 239 231 231 236 247 260 273 285 296 306 309 310 308 305 299 288 277 267 259 255 248 243 235 220 208 201 194 190 187 168
6 6 5 2 1 2 0 352 340 320 303 283 260 246 240 234 233 242 254 268 284 296 303 307 310 310 310 307 298 282 271 257 252 245 233 228 204 192 183 171 164 156 140
5 5 4 6 7 2 357 352 343 331 316 301 278 254 244 234 234 243 250 259 277 291 300 308 312 315 318 318 313 300 288 263 251 240 215 212 174 154 153 152 146 138 131
4 4 5 5 1 355 350 345 339 331 322 313 294 270 250 238 237 239 243 248 266 289 307 313 316 321 325 331 335 323 321 337 346 175 140 139 140 135 132 128 125 121 116
358 357 354 350 345 341 338 337 334 329 327 318 301 280 262 244 238 235 235 239 249 271 299 309 314 323 335 346 356 9 27 47 55 60 72 86 116 129 126 119 117 115 111
351 347 341 334 332 331 330 329 328 328 328 323 310 289 277 260 242 230 228 230 234 248 275 304 324 339 359 11 21 48 61 59 60 61 63 70 89 101 108 113 113 114 113
343 337 332 327 324 321 318 320 321 323 325 324 316 308 293 274 255 235 223 220 220 229 238 282 336 9 29 34 48 64 79 70 67 66 63 67 75 85 87 92 97 109 118
329 324 319 313 308 304 301 302 303 311 321 321 317 318 309 289 272 249 223 217 209 203 209 208 167 82 47 61 68 72 79 76 74 74 72 75 77 84 92 89 86 84 90
314 309 306 303 300 297 295 294 297 301 308 315 317 313 313 304 290 265 238 220 202 197 200 193 178 151 113 99 89 86 81 77 72 72 79 87 86 91 99 97 88 80 73
294 292 290 290 291 293 293 296 296 295 297 302 308 311 304 300 293 277 255 228 204 197 196 187 177 168 163 140 117 105 95 87 76 69 72 90 95 99 104 102 98 90 80
298 295 293 291 291 290 291 289 290 291 289 289 293 299 299 295 290 278 267 239 212 201 193 187 180 179 176 165 144 125 114 103 95 80 70 77 98 106 109 112 113 108 101
296 296 295 292 288 288 291 287 287 283 282 284 287 291 290 290 287 277 269 246 217 199 192 185 180 183 183 173 163 150 134 131 121 110 97 90 105 107 107 110 115 123 118
294 294 291 288 287 286 287 286 283 280 284 285 285 287 287 288 294 282 275 254 219 199 189 184 179 184 186 177 172 162 148 142 133 129 123 117 114 110 107 106 116 117 111
287 286 281 283 284 281 278 278 280 282 285 284 281 282 284 282 284 277 273 262 225 202 188 186 186 183 181 179 172 165 153 144 131 132 133 125 114 103 99 108 115 114 111
282 280 278 279 280 279 276 272 277 281 282 282 281 280 281 281 281 273 264 257 233 211 195 188 186 180 175 175 166 160 150 139 125 123 121 111 100 96 99 100 97 99 109
278 274 271 271 274 274 272 273 276 277 277 279 280 279 276 274 276 273 263 254 243 222 202 193 183 178 182 186 171 162 160 156 146 133 119 114 113 111 107 103 103 107 110
280 277 273 271 272 272 272 273 272 271 273 278 279 275 273 272 271 274 280 259 245 230 211 198 182 185 180 165 167 165 158 150 146 135 138 140 142 142 139 135 126 122 124